Regional Weather Roundup
Issued by NWS

Home | Current Version | Previous Version | Text Only | Print | Product List | Glossary Off
Versions: 1 2 3 4 5 6 7 8 9 10 11 12 13 14 15 16 17 18 19 20 21 22 23 24 25 26 27 28 29 30 31 32 33 34 35 36 37 38 39 40 41 42 43 44 45 46 47 48 49 50

000
ASUS45 KABQ 231201
RWRNM
NEW MEXICO REGIONAL WEATHER ROUNDUP
NATIONAL WEATHER SERVICE ALBUQUERQUE NM
600 AM MDT THU MAR 23 2017

NOTE: "FAIR" MEANS FEW OR NO CLOUDS BELOW 12,000 FEET AGL WITH NO
       SIGNIFICANT WEATHER OR OBSTRUCTIONS TO VISION.

      THIS PRODUCT IS RELEASED AS TWO VERSIONS.  ONE VERSION NEAR
      THE TOP OF THE HOUR CONTAINING PRELIMINARY DATA FROM ALBUQUERQUE
      AND OTHER STATIONS.  A FINAL VERSION WITH ADDITIONAL DATA IS
      ISSUED ABOUT 10 MINUTES AFTER THE HOUR.

NMZ501-503-504-510>518-231300-
NORTHWEST PLATEAU/NORTHCENTRAL MOUNTAINS

CITY           SKY/WX    TMP DP  RH WIND       PRES   REMARKS
FARMINGTON     FAIR      41  23  48 E9        29.83F
6HR MIN TEMP:  38; 6HR MAX TEMP:  56;

LOS ALAMOS     FAIR      53  14  21 S18       29.91S
SANTA FE       FAIR      45  17  32 S7        29.88S
6HR MIN TEMP:  43; 6HR MAX TEMP:  57;

TAOS             N/A     48  12  23 SW8       29.91S
ANGEL FIRE     FAIR      37  25  61 S8        29.95F WCI  31

$$
NMZ402-403-502-505>509-231300-
WESTCENTRAL MOUNTAINS/SOUTHWEST MOUNTAINS

CITY           SKY/WX    TMP DP  RH WIND       PRES   REMARKS
GALLUP         FAIR      44  34  67 SW9       29.88F
6HR MIN TEMP:  44; 6HR MAX TEMP:  51;

GRANTS         FAIR      34  20  54 CALM      29.92R
SILVER CITY    FAIR      39  24  54 N7        29.91F WCI  34

$$
NMZ407-409-411-412-231300-
SOUTHERN DESERTS

CITY           SKY/WX    TMP DP  RH WIND       PRES   REMARKS
DEMING         FAIR      50  21  32 SW3       29.87F
6HR MIN TEMP:  48; 6HR MAX TEMP:  65;

ALAMOGORDO     FAIR      64  16  15 S9        29.88R
T OR C         FAIR      62  18  18 S17G25    29.84F
6HR MIN TEMP:  62; 6HR MAX TEMP:  68;


$$
NMZ519>523-231300-
CENTRAL VALLEYS/CENTRAL HIGHLANDS

CITY           SKY/WX    TMP DP  RH WIND       PRES   REMARKS
ALBUQUERQUE    FAIR      56  14  19 S12       29.85S
6HR MIN TEMP:  54; 6HR MAX TEMP:  64;

DOUBLE EAGLE   CLEAR     45  18  33 S10       29.87S
MORIARTY ARPT  FAIR      40  16  36 S6        29.91S
6HR MIN TEMP:  36; 6HR MAX TEMP:  55;

CLINES CORNERS FAIR      52  12  20 SW30G36   29.92F
6HR MIN TEMP:  49; 6HR MAX TEMP:  55;

BELEN          FAIR      50  15  25 S9        29.85F
6HR MIN TEMP:  48; 6HR MAX TEMP:  58;

SOCORRO        FAIR      49  18  29 S3        29.84F
6HR MIN TEMP:  49; 6HR MAX TEMP:  62;


$$
NMZ524>526-539-540-231300-
SOUTHCENTRAL MOUNTAINS

CITY           SKY/WX    TMP DP  RH WIND       PRES   REMARKS
RUIDOSO        NOT AVBL

$$
NMZ527>531-231300-
NORTHEAST HIGHLANDS/NORTHEAST PLAINS

CITY           SKY/WX    TMP DP  RH WIND       PRES   REMARKS
LAS VEGAS      FAIR      45  20  36 S12       29.90F
6HR MIN TEMP:  42; 6HR MAX TEMP:  56;

RATON          FAIR      47  42  83 W5        29.85F
6HR MIN TEMP:  43; 6HR MAX TEMP:  51;

CLAYTON        FAIR      48  47  96 S13       29.82F
6HR MIN TEMP:  45; 6HR MAX TEMP:  54;


$$
NMZ532>537-231300-
EASTCENTRAL PLAINS

CITY           SKY/WX    TMP DP  RH WIND       PRES   REMARKS
SANTA ROSA     FAIR      48  46  92 CALM      29.85S
TUCUMCARI      MOCLDY    60  54  80 S22       29.80F
6HR MIN TEMP:  55; 6HR MAX TEMP:  64;

CANNON AFB     CLOUDY    58  58 100 S8        29.87S
6HR MIN TEMP:  55; 6HR MAX TEMP:  60;

CLOVIS AIRPORT CLOUDY    61  54  77 S18       29.88R

$$
NMZ028-029-538-231300-
SOUTHEAST PLAINS

CITY           SKY/WX    TMP DP  RH WIND       PRES   REMARKS
ROSWELL        FAIR      57  55  93 S14       29.84  FOG
6HR MIN TEMP:  57; 6HR MAX TEMP:  70;

ARTESIA        FAIR      57  57 100 S10       29.84S FOG
CARLSBAD       FAIR      57  57 100 S8        29.84F
6HR MIN TEMP:  56; 6HR MAX TEMP:  67;

HOBBS          CLEAR     59  57  94 S14G21    29.90S


$$




USA.gov is the U.S. government's official web portal to all federal, state and local government web resources and services.